Weather History for YPPD - December, 2013

Change the Weather History Date:

Monday, December 16, 2013

  Actual Average Record
Temperature  
Mean Temperature 87 °F -  
Max Temperature 99 °F 97 °F 111 °F (2004)
Min Temperature 75 °F 77 °F 69 °F (2003)
Cooling Degree Days 22    
Growing Degree Days 37 (Base 50)    
Moisture  
Dew Point 67 °F    
Average Humidity 54    
Maximum Humidity 84    
Minimum Humidity 19    
Precipitation  
Precipitation 0.00 in 0.06 in - ()
Sea Level Pressure  
Sea Level Pressure 29.78 in    
Wind  
Wind Speed 7 mph ()    
Max Wind Speed 17 mph    
Max Gust Speed -    
Visibility 7.1 miles    
Events      
Averages and records for this station are not official NWS values.
T = Trace of Precipitation, MM = Missing Value Source: Averaged Metar Reports

Daily Weather History Graph

Daily Weather History Graph

Search for Another Location

Airport or City:

Trip Planner

Search our weather history database for the weather conditions in past years. The results will help you decide how hot, cold, wet, or windy it might be!

Date:

Astronomy

Dec. 16, 2013 Rise Set
Actual Time 5:20 AM AWST 6:41 PM AWST
Civil Twilight 4:55 AM AWST 7:06 PM AWST
Nautical Twilight 4:26 AM AWST 7:35 PM AWST
Astronomical Twilight 3:55 AM AWST 8:06 PM AWST
Moon 5:46 PM AWST (12/16) 4:19 AM AWST (12/16)
Length of Visible Light 14h 11m
Length of Day
13h 21m
Waxing Gibbous, 99% of the Moon is Illuminated
Dec 16
Waxing Gibbous
Dec 17
Full
Dec 25
Last Quarter
Jan 1
New
Jan 8
First Quarter

Hourly Weather History & Observations

Time (AWST) Temp. Heat Index Dew Point Humidity Pressure Visibility Wind Dir Wind Speed Gust Speed Precip Events Conditions
12:00 AM 81 °F - 75 °F 76% 29.84 in - ESE 5.8 mph - -  
12:00 AM 80.6 °F 86.2 °F 75.2 °F 84% 29.83 in 6.2 mi ESE 5.8 mph - N/A   Unknown
12:30 AM 80.6 °F 86.2 °F 75.2 °F 84% 29.83 in 6.2 mi East 4.6 mph - N/A   Unknown
1:00 AM 80.6 °F 86.2 °F 75.2 °F 84% 29.80 in 6.2 mi ESE 3.5 mph - N/A   Unknown
1:30 AM 80.6 °F 86.2 °F 75.2 °F 84% 29.80 in 6.2 mi Calm Calm - N/A   Unknown
2:00 AM 78 °F - 74 °F 84% 29.81 in - ESE 3.5 mph - -  
2:00 AM 78.8 °F - 73.4 °F 83% 29.80 in 6.2 mi ESE 3.5 mph - N/A   Unknown
2:30 AM 78.8 °F - 73.4 °F 83% 29.80 in 6.2 mi South 3.5 mph - N/A   Unknown
3:00 AM 78 °F - 73 °F 81% 29.81 in - South 5.8 mph - -  
3:00 AM 78.8 °F - 73.4 °F 83% 29.80 in 6.2 mi South 5.8 mph - N/A   Unknown
3:30 AM 77.0 °F - 71.6 °F 83% 29.80 in 6.2 mi South 4.6 mph - N/A   Unknown
4:00 AM 77.0 °F - 71.6 °F 83% 29.80 in 6.2 mi South 5.8 mph - N/A   Unknown
4:30 AM 77.0 °F - 71.6 °F 83% 29.80 in 6.2 mi South 5.8 mph - N/A   Unknown
5:00 AM 76 °F - 71 °F 78% 29.81 in - South 5.8 mph - -  
5:00 AM 77.0 °F - 69.8 °F 78% 29.80 in 6.2 mi South 5.8 mph - N/A   Unknown
5:30 AM 75.2 °F - 69.8 °F 83% 29.80 in 6.2 mi South 5.8 mph - N/A   Unknown
6:00 AM 77 °F - 69 °F 70% 29.83 in 19 mi SSE 6.9 mph - -   Partly Cloudy
6:00 AM 77.0 °F - 69.8 °F 78% 29.83 in 6.2 mi SSE 6.9 mph - N/A   Partly Cloudy
6:30 AM 80.6 °F 82.7 °F 66.2 °F 61% 29.83 in 6.2 mi SE 6.9 mph - N/A   Partly Cloudy
7:00 AM 84.2 °F 85.0 °F 62.6 °F 48% 29.83 in 6.2 mi SE 8.1 mph - N/A   Partly Cloudy
7:30 AM 87.8 °F 88.5 °F 62.6 °F 43% 29.83 in - SE 8.1 mph - N/A   Clear
8:00 AM 89 °F - 62 °F 31% 29.83 in - ESE 6.9 mph - -  
8:00 AM 89.6 °F 90.1 °F 62.6 °F 40% 29.83 in - ESE 6.9 mph - N/A   Clear
8:30 AM 91.4 °F 92.1 °F 62.6 °F 38% 29.80 in - East 6.9 mph - N/A   Clear
9:00 AM 92 °F - 61 °F 26% 29.82 in 19 mi NE 10.4 mph - -   Partly Cloudy
9:00 AM 91.4 °F 91.4 °F 60.8 °F 36% 29.80 in - NE 10.4 mph - N/A   Clear
9:30 AM 93.2 °F 94.1 °F 62.6 °F 36% 29.80 in - NE 10.4 mph - N/A   Clear
10:00 AM 93.2 °F 94.1 °F 62.6 °F 36% 29.80 in - North 8.1 mph - N/A   Clear
10:30 AM 95.0 °F 95.2 °F 60.8 °F 32% 29.80 in - NNE 11.5 mph - N/A   Clear
11:00 AM 94 °F - 61 °F 24% 29.80 in - North 9.2 mph - -  
11:00 AM 95.0 °F 95.2 °F 60.8 °F 32% 29.80 in - North 9.2 mph - N/A   Clear
11:30 AM 96.8 °F 98.0 °F 62.6 °F 32% 29.77 in 6.2 mi North 10.4 mph - N/A   Unknown
12:00 PM 97 °F - 59 °F 19% 29.78 in 19 mi North 12.7 mph - -   Partly Cloudy
12:00 PM 96.8 °F 96.2 °F 59.0 °F 28% 29.77 in - North 12.7 mph - N/A   Clear
12:30 PM 96.8 °F 97.1 °F 60.8 °F 30% 29.77 in 6.2 mi NNW 12.7 mph - N/A   Unknown
1:00 PM 98.6 °F 100.0 °F 62.6 °F 30% 29.74 in 6.2 mi NNW 13.8 mph - N/A   Unknown
1:30 PM 96.8 °F 98.0 °F 62.6 °F 32% 29.74 in 6.2 mi NNW 15.0 mph - N/A   Unknown
2:00 PM 97 °F - 65 °F 25% 29.74 in - NNW 16.1 mph - -  
2:00 PM 96.8 °F 99.0 °F 64.4 °F 34% 29.74 in 6.2 mi NNW 16.1 mph - N/A   Unknown
2:30 PM 96.8 °F 101.8 °F 68.0 °F 39% 29.74 in 6.2 mi NNW 17.3 mph - N/A   Unknown
3:00 PM 95 °F - 63 °F 25% 29.73 in - North 16.1 mph - -  
3:00 PM 95.0 °F 96.0 °F 62.6 °F 34% 29.71 in 6.2 mi North 16.1 mph - N/A   Unknown
3:30 PM 93.2 °F 94.1 °F 62.6 °F 36% 29.71 in 6.2 mi NNW 16.1 mph - N/A   Unknown
4:00 PM 93.2 °F 94.1 °F 62.6 °F 36% 29.71 in 6.2 mi NNW 16.1 mph - N/A   Unknown
4:30 PM 91.4 °F 93.2 °F 64.4 °F 41% 29.71 in 6.2 mi NNW 13.8 mph - N/A   Unknown
5:00 PM 92 °F - 66 °F 32% 29.72 in - NW 12.7 mph - -  
5:00 PM 91.4 °F 94.0 °F 66.2 °F 43% 29.71 in 6.2 mi NW 12.7 mph - N/A   Unknown
5:30 PM 91.4 °F 93.2 °F 64.4 °F 41% 29.71 in 6.2 mi NW 12.7 mph - N/A   Unknown
6:00 PM 89 °F - 65 °F 35% 29.74 in - NW 11.5 mph - -  
6:00 PM 89.6 °F 91.1 °F 64.4 °F 43% 29.74 in 6.2 mi NW 11.5 mph - N/A   Unknown
6:30 PM 87.8 °F 90.4 °F 66.2 °F 49% 29.74 in 6.2 mi WNW 9.2 mph - N/A   Unknown
7:00 PM 87.8 °F 90.4 °F 66.2 °F 49% 29.74 in 6.2 mi WNW 9.2 mph - N/A   Unknown
7:30 PM 86.0 °F 90.4 °F 69.8 °F 58% 29.74 in 6.2 mi NW 6.9 mph - N/A   Unknown
8:00 PM 84 °F - 70 °F 54% 29.77 in - WNW 5.8 mph - -  
8:00 PM 84.2 °F 88.4 °F 69.8 °F 62% 29.77 in 6.2 mi WNW 5.8 mph - N/A   Unknown
8:30 PM 82.4 °F 86.3 °F 69.8 °F 66% 29.77 in 6.2 mi WNW 6.9 mph - N/A   Unknown
9:00 PM 83 °F - 69 °F 55% 29.78 in - NW 4.6 mph - -  
9:00 PM 82.4 °F 86.3 °F 69.8 °F 66% 29.77 in 6.2 mi NW 4.6 mph - N/A   Unknown
9:30 PM 82.4 °F 86.3 °F 69.8 °F 66% 29.77 in 6.2 mi NW 5.8 mph - N/A   Unknown
10:00 PM 82.4 °F 87.2 °F 71.6 °F 70% 29.80 in 6.2 mi NW 4.6 mph - N/A   Unknown
10:30 PM 80.6 °F 84.6 °F 71.6 °F 74% 29.80 in 6.2 mi WSW 5.8 mph - N/A   Unknown
11:00 PM 80 °F - 70 °F 65% 29.82 in - SW 5.8 mph - -  
11:00 PM 80.6 °F 83.9 °F 69.8 °F 70% 29.80 in 6.2 mi SW 5.8 mph - N/A   Unknown
11:30 PM 80.6 °F 83.9 °F 69.8 °F 70% 29.80 in 6.2 mi SSW 5.8 mph - N/A   Unknown